Total_Precipitation_Accumulation
1.75 2.21 2.76 3.61 4.68 5.60 5.87 5.38 4.91 4.60 4.22 3.84 3.28 2.95 2.99 2.90 2.62 2.36 2.07 2.00 1.95 2.04 2.20 1.98 2.19 2.03 2.10 2.21 2.30 2.42 2.44 2.34 2.42 2.60 2.54 2.15 1.84 1.75 1.69 1.75 1.98 1.88 1.87
1.91 2.63 3.66 4.24 4.48 4.62 4.38 4.06 3.81 3.62 3.18 2.92 2.79 2.59 2.61 2.34 2.18 2.12 2.16 1.84 1.74 1.81 1.77 2.00 2.02 2.01 2.18 2.23 2.20 2.32 2.29 2.11 2.19 2.46 2.69 2.35 2.14 1.74 1.29 1.39 1.41 1.52 1.81
2.10 2.90 3.47 3.60 3.31 3.00 2.92 2.88 2.95 2.71 2.61 2.66 2.62 2.56 2.62 2.34 2.10 2.02 2.08 1.77 1.54 1.54 1.63 1.71 1.83 2.03 1.95 2.09 2.14 2.08 2.16 2.21 2.19 2.21 2.55 2.52 2.31 1.96 1.44 1.23 1.28 1.45 1.66
1.63 2.06 2.30 2.19 2.31 2.45 2.46 2.57 2.67 2.43 2.42 2.39 2.14 2.09 2.08 1.98 1.90 1.87 1.93 2.00 1.64 1.45 1.43 1.50 1.64 1.81 1.77 1.99 1.80 1.93 2.17 2.25 2.12 2.06 1.98 2.02 2.09 2.21 1.91 1.49 1.28 1.39 1.47
1.02 1.13 1.26 1.42 1.63 1.73 1.90 2.19 2.45 2.40 2.25 2.09 2.06 2.15 2.02 2.01 2.01 2.04 2.08 2.11 1.91 1.65 1.46 1.54 1.64 1.72 1.68 1.73 1.74 2.09 2.10 2.03 1.98 1.96 1.96 1.93 1.92 1.88 1.95 1.78 1.52 1.40 1.18
0.88 0.91 0.97 1.12 1.29 1.40 1.56 1.81 2.15 2.30 2.23 2.08 2.00 2.07 2.15 2.14 2.08 2.08 2.05 1.85 1.80 1.79 1.64 1.64 1.71 1.62 1.59 1.61 1.67 1.93 1.95 2.00 2.08 2.05 1.90 1.96 1.89 1.82 1.97 1.76 1.52 1.38 0.98
0.92 0.98 0.94 0.91 0.97 1.12 1.26 1.36 1.59 1.88 2.00 1.96 1.94 1.98 2.14 2.07 1.92 1.81 1.74 1.69 1.53 1.48 1.53 1.60 1.72 1.57 1.53 1.60 1.80 1.91 1.92 1.98 2.00 1.92 1.82 1.79 1.60 1.67 1.77 1.68 1.44 1.36 1.06
0.81 0.84 0.84 0.81 0.78 0.86 1.04 1.18 1.41 1.61 1.82 1.84 1.81 1.85 1.94 1.87 1.75 1.77 1.59 1.55 1.48 1.42 1.52 1.58 1.57 1.54 1.53 1.54 1.87 1.81 1.82 1.88 1.81 1.69 1.92 1.82 1.52 1.66 1.72 1.80 1.95 1.76 1.51
0.62 0.74 0.80 0.89 0.88 0.85 0.97 1.12 1.37 1.61 1.82 1.90 1.92 1.86 1.86 1.88 1.86 1.81 1.61 1.44 1.57 1.49 1.59 1.63 1.57 1.58 1.72 1.86 2.02 1.88 1.88 1.94 1.77 1.78 2.00 1.87 1.68 1.67 1.66 1.84 2.11 2.23 1.92
0.67 0.86 1.01 0.98 0.84 0.73 0.80 0.99 1.25 1.61 1.80 1.93 1.91 1.78 1.93 1.87 1.87 1.82 1.69 1.54 1.53 1.53 1.65 1.76 1.72 1.77 1.81 1.93 2.01 1.86 1.94 1.94 1.83 1.86 2.05 2.03 1.87 1.86 1.78 1.82 1.99 2.23 2.19
0.75 0.91 1.09 1.04 0.82 0.72 0.70 0.85 1.19 1.48 1.62 1.71 1.78 1.72 1.69 1.64 1.65 1.70 1.70 1.67 1.64 1.58 1.59 1.68 1.70 1.68 1.74 1.83 1.93 1.80 1.84 1.83 1.85 1.84 1.91 1.95 2.09 2.10 2.01 2.11 2.16 2.23 2.37
0.81 0.77 0.90 1.03 0.95 0.83 0.75 0.93 1.22 1.40 1.46 1.50 1.48 1.47 1.53 1.53 1.47 1.46 1.51 1.57 1.50 1.44 1.51 1.56 1.53 1.47 1.59 1.75 1.79 1.72 1.79 1.84 1.80 1.89 2.04 1.96 2.06 2.15 2.19 2.36 2.24 2.30 2.58
0.61 0.63 0.78 0.89 1.01 0.96 0.91 1.05 1.20 1.30 1.34 1.26 1.25 1.27 1.30 1.31 1.31 1.34 1.41 1.49 1.52 1.52 1.50 1.48 1.40 1.40 1.49 1.57 1.59 1.70 1.81 1.86 1.90 2.00 2.09 2.14 2.34 2.25 2.30 2.35 2.28 2.32 2.56
0.65 0.61 0.69 0.89 0.98 1.03 1.01 1.00 1.08 1.23 1.25 1.18 1.25 1.36 1.41 1.44 1.47 1.45 1.51 1.61 1.68 1.62 1.63 1.61 1.62 1.64 1.61 1.62 1.69 1.78 1.86 1.87 1.92 2.08 2.13 2.17 2.25 2.34 2.50 2.48 2.54 2.71 2.89
0.68 0.65 0.73 0.91 1.03 1.18 1.20 1.15 1.13 1.19 1.29 1.37 1.48 1.67 1.81 1.84 1.75 1.73 1.81 1.88 1.92 1.85 1.99 1.96 1.93 1.98 1.94 1.75 1.88 1.96 1.91 2.02 1.94 2.03 2.09 2.07 2.21 2.30 2.43 2.34 2.54 2.88 3.07
0.65 0.60 0.70 0.91 0.95 0.98 1.06 1.05 1.07 1.10 1.12 1.23 1.41 1.64 1.86 1.97 1.96 1.99 2.11 2.14 2.09 2.19 2.27 2.19 2.15 2.12 1.87 1.99 2.06 2.05 2.15 2.18 2.14 2.16 2.19 2.15 2.16 2.08 2.13 2.20 2.33 2.55 2.73
0.64 0.67 0.71 0.81 0.97 0.90 0.89 1.01 1.09 1.18 1.27 1.45 1.65 1.77 1.96 2.11 2.13 2.09 2.13 2.18 2.20 2.17 2.21 2.21 2.23 2.10 2.04 2.06 1.89 1.90 1.95 2.10 2.18 2.22 2.24 2.04 1.90 1.97 1.87 2.01 2.08 2.04 2.08
0.86 0.93 1.00 0.99 1.06 1.04 1.03 1.12 1.19 1.33 1.37 1.43 1.59 1.72 1.92 2.06 2.16 2.26 2.29 2.38 2.46 2.46 2.42 2.34 2.32 2.28 2.14 2.04 1.87 1.93 1.82 1.90 1.97 2.01 2.05 2.02 1.92 1.91 2.00 2.00 1.88 1.69 1.64
0.95 1.04 1.09 1.13 1.13 1.21 1.30 1.42 1.42 1.52 1.66 1.67 1.84 1.96 2.06 2.19 2.26 2.31 2.46 2.58 2.67 2.63 2.62 2.57 2.56 2.54 2.52 2.46 2.17 2.07 1.90 1.94 1.94 1.95 1.96 1.93 1.79 1.94 1.89 1.82 1.81 1.69 1.57
1.05 1.13 1.10 1.09 1.22 1.31 1.39 1.52 1.69 1.80 1.96 2.05 2.12 2.19 2.29 2.36 2.37 2.40 2.50 2.54 2.57 2.56 2.58 2.52 2.58 2.55 2.54 2.62 2.34 2.13 1.87 1.89 1.93 2.02 2.03 2.04 1.89 1.95 1.89 1.83 1.85 1.73 1.63
1.24 1.21 1.18 1.22 1.28 1.32 1.41 1.57 1.76 1.93 2.01 2.08 2.16 2.26 2.34 2.54 2.68 2.73 2.59 2.46 2.46 2.53 2.63 2.61 2.65 2.65 2.60 2.56 2.21 2.06 1.96 2.01 2.05 2.02 1.95 1.97 1.99 1.78 1.65 1.58 1.57 1.63 1.68
1.35 1.35 1.34 1.32 1.36 1.45 1.53 1.66 1.82 1.92 2.01 2.03 2.14 2.26 2.32 2.32 2.38 2.64 2.72 2.68 2.60 2.52 2.55 2.64 2.58 2.50 2.44 2.31 2.03 1.79 1.75 1.81 1.82 1.82 1.79 1.78 1.75 1.55 1.39 1.23 1.18 1.26 1.28
1.30 1.31 1.33 1.38 1.43 1.50 1.62 1.77 1.87 1.95 1.97 2.07 2.23 2.38 2.44 2.48 2.45 2.49 2.58 2.56 2.50 2.38 2.25 2.30 2.34 2.32 2.32 2.19 1.89 1.59 1.49 1.52 1.46 1.54 1.74 1.72 1.59 1.45 1.34 1.27 1.19 1.10 1.03
1.35 1.38 1.37 1.39 1.52 1.65 1.80 1.84 1.85 1.95 2.13 2.20 2.24 2.30 2.35 2.37 2.42 2.54 2.47 2.40 2.39 2.33 2.17 2.18 2.21 2.22 2.20 2.05 1.79 1.62 1.53 1.49 1.43 1.48 1.64 1.71 1.69 1.58 1.47 1.36 1.19 1.01 1.00
1.31 1.38 1.46 1.50 1.59 1.65 1.79 1.91 1.95 1.97 2.06 2.05 2.00 2.07 2.17 2.21 2.22 2.36 2.43 2.25 2.15 2.19 2.09 2.15 2.31 2.25 2.06 1.89 1.74 1.54 1.50 1.50 1.56 1.58 1.66 1.78 1.81 1.78 1.67 1.51 1.35 1.23 1.19
1.28 1.39 1.47 1.57 1.60 1.63 1.72 1.75 1.81 1.90 2.00 2.07 2.04 2.03 2.07 2.12 2.15 2.12 2.16 2.13 1.90 1.85 1.76 1.80 1.88 1.92 1.81 1.70 1.61 1.52 1.46 1.41 1.41 1.43 1.56 1.83 1.90 1.91 1.88 1.77 1.58 1.44 1.35